Location: Newark
(19.2128°S, 49.7858°W)
Time: 02:52:04
(UTC+00:00)

Envisat - Pass Details

Date: 25 August 2019
Orbit: 764 x 766 km, 98.1° (Epoch: 16 September)

Event Time Altitude Azimuth Distance (km) Brightness Sun altitude
Rises 21:50:22 0° 161° (SSE) 3,251 6.0 -10.3°
Reaches altitude 10° 21:52:45 10° 156° (SSE) 2,318 5.2 -10.8°
Maximum altitude 21:57:44 53° 79° (E) 936 3.1 -12.0°
Drops below altitude 10° 22:02:40 10° 3° (N) 2,295 5.5 -13.2°
Sets 22:05:00 0° 358° (N) 3,214 6.3 -13.7°
